{"data":{"norad_id":55463,"epoch":"2026-05-25T00:23:21.403680Z","epoch_age_seconds":80432,"freshness":"FRESH","line1":"1 55463U 23015Q   26145.01621995  .00019893  00000+0  10050-2 0  9992","line2":"2 55463  43.0001 263.7766 0004046 313.9692  46.0821 15.16727792182321","mean_motion":15.16727792,"eccentricity":0.0004046,"inclination_deg":43.0001,"raan_deg":263.7766,"arg_perigee_deg":313.9692,"mean_anomaly_deg":46.0821,"bstar":0.001005,"rev_number":18232,"period_min":94.941228584015,"perigee_km":512.94884959362,"apogee_km":518.52737333381,"semimajor_km":6893.8751114637,"source":"CELESTRAK","updated_at":"2026-05-25T13:38:17.805239Z"}}